• In Portugal
  • List of Countries
  • For 7 days
  • Water Temperature
  • Satellite Maps
  • Weather Map
  • Weather Widgets
  • user-avatar
    Login

    Hourly Weather Jutiapa

    Today, 20 October, Friday

    Time Temperature Precipitation Wind Pressure Humidity
    00:00 +20°C° 0 mm 2 mps 672 mmHg 91%
    01:00 +19°C° 0 mm 2 mps 672 mmHg 91%
    02:00 +19°C° 0 mm 2 mps 671 mmHg 91%
    03:00 +19°C° 0 mm 2 mps 671 mmHg 91%
    04:00 +19°C° 0 mm 2 mps 671 mmHg 91%
    05:00 +19°C° 0 mm 2 mps 671 mmHg 91%
    06:00 +19°C° 0 mm 2 mps 671 mmHg 90%
    07:00 +21°C° 0 mm 2 mps 672 mmHg 84%
    08:00 +24°C° 0 mm 3 mps 673 mmHg 77%
    09:00 +26°C° 0 mm 3 mps 673 mmHg 71%
    10:00 +27°C° 0 mm 3 mps 673 mmHg 65%
    11:00 +28°C° 0 mm 3 mps 673 mmHg 60%
    12:00 +29°C° 0 mm 3 mps 673 mmHg 55%
    13:00 +29°C° 0.4 mm 3 mps 672 mmHg 59%
    14:00 +29°C° 0.4 mm 2 mps 672 mmHg 62%
    15:00 +28°C° 0.4 mm 2 mps 671 mmHg 66%
    16:00 +26°C° 0.5 mm 2 mps 671 mmHg 73%
    17:00 +25°C° 0.5 mm 1 mps 671 mmHg 80%
    18:00 +23°C° 0.5 mm 1 mps 670 mmHg 87%
    19:00 +22°C° 0.1 mm 1 mps 671 mmHg 88%
    20:00 +22°C° 0.1 mm 1 mps 671 mmHg 90%
    21:00 +20°C° 0.1 mm 2 mps 672 mmHg 92%
    22:00 +20°C° 0 mm 2 mps 672 mmHg 92%
    23:00 +20°C° 0 mm 2 mps 672 mmHg 93%

    Tomorrow, 21 October, Saturday

    Time Temperature Precipitation Wind Pressure Humidity
    00:00 +19°C° 0 mm 2 mps 672 mmHg 93%
    01:00 +19°C° 0 mm 2 mps 671 mmHg 93%
    02:00 +19°C° 0 mm 2 mps 671 mmHg 93%
    03:00 +19°C° 0 mm 2 mps 670 mmHg 93%
    04:00 +19°C° 0 mm 2 mps 670 mmHg 92%
    05:00 +19°C° 0 mm 2 mps 671 mmHg 92%
    06:00 +19°C° 0 mm 2 mps 671 mmHg 92%
    07:00 +21°C° 0 mm 2 mps 672 mmHg 85%
    08:00 +24°C° 0 mm 2 mps 672 mmHg 77%
    09:00 +25°C° 0 mm 2 mps 673 mmHg 70%
    10:00 +27°C° 0 mm 2 mps 673 mmHg 65%
    11:00 +28°C° 0 mm 2 mps 673 mmHg 60%
    12:00 +30°C° 0 mm 2 mps 673 mmHg 55%
    13:00 +29°C° 0.6 mm 2 mps 672 mmHg 60%
    14:00 +29°C° 0.6 mm 2 mps 671 mmHg 65%
    15:00 +28°C° 0.6 mm 2 mps 671 mmHg 70%
    16:00 +26°C° 1.1 mm 2 mps 671 mmHg 77%
    17:00 +24°C° 1.1 mm 1 mps 671 mmHg 84%
    18:00 +22°C° 1.1 mm 1 mps 670 mmHg 91%
    19:00 +22°C° 0.5 mm 1 mps 671 mmHg 92%
    20:00 +21°C° 0.5 mm 1 mps 672 mmHg 93%
    21:00 +21°C° 0.5 mm 1 mps 672 mmHg 94%
    22:00 +21°C° 0.1 mm 1 mps 672 mmHg 94%
    23:00 +21°C° 0.1 mm 1 mps 672 mmHg 94%

    Day after tomorrow, 22 October, Sunday

    Time Temperature Precipitation Wind Pressure Humidity
    00:00 +21°C° 0.1 mm 1 mps 672 mmHg 94%
    01:00 +20°C° 0.2 mm 1 mps 671 mmHg 94%
    02:00 +20°C° 0.2 mm 1 mps 671 mmHg 94%
    03:00 +20°C° 0.2 mm 1 mps 671 mmHg 94%
    04:00 +20°C° 0.1 mm 1 mps 671 mmHg 94%
    05:00 +20°C° 0.1 mm 1 mps 671 mmHg 94%
    06:00 +20°C° 0.1 mm 1 mps 671 mmHg 93%
    07:00 +22°C° 0 mm 1 mps 672 mmHg 87%
    08:00 +24°C° 0 mm 1 mps 673 mmHg 80%
    09:00 +26°C° 0 mm 1 mps 674 mmHg 73%
    10:00 +26°C° 0.7 mm 1 mps 674 mmHg 72%
    11:00 +27°C° 0.7 mm 1 mps 674 mmHg 72%
    12:00 +28°C° 0.7 mm 1 mps 673 mmHg 72%
    13:00 +27°C° 2.3 mm 1 mps 672 mmHg 76%
    14:00 +26°C° 2.3 mm 1 mps 672 mmHg 80%
    15:00 +26°C° 2.3 mm 1 mps 671 mmHg 84%
    16:00 +25°C° 2.5 mm 1 mps 671 mmHg 87%
    17:00 +23°C° 2.5 mm 1 mps 671 mmHg 90%
    18:00 +22°C° 2.5 mm 1 mps 671 mmHg 93%
    19:00 +22°C° 1.9 mm 1 mps 672 mmHg 93%
    20:00 +22°C° 1.9 mm 1 mps 672 mmHg 94%
    21:00 +22°C° 1.9 mm 1 mps 673 mmHg 94%
    22:00 +21°C° 0.4 mm 1 mps 673 mmHg 95%
    23:00 +21°C° 0.4 mm 1 mps 672 mmHg 95%

    23 October, Monday

    Time Temperature Precipitation Wind Pressure Humidity
    00:00 +21°C° 0.4 mm 1 mps 672 mmHg 95%
    01:00 +21°C° 0.1 mm 1 mps 672 mmHg 95%
    02:00 +20°C° 0.1 mm 1 mps 671 mmHg 95%
    03:00 +20°C° 0.1 mm 1 mps 671 mmHg 95%
    04:00 +20°C° 0 mm 1 mps 671 mmHg 95%
    05:00 +20°C° 0 mm 1 mps 671 mmHg 95%
    06:00 +20°C° 0 mm 1 mps 671 mmHg 94%
    07:00 +21°C° 0.1 mm 1 mps 672 mmHg 90%
    08:00 +23°C° 0.1 mm 2 mps 673 mmHg 85%
    09:00 +24°C° 0.1 mm 2 mps 674 mmHg 80%
    10:00 +25°C° 0.2 mm 2 mps 673 mmHg 77%
    11:00 +26°C° 0.2 mm 2 mps 673 mmHg 73%
    12:00 +27°C° 0.2 mm 2 mps 673 mmHg 70%
    13:00 +27°C° 1.3 mm 2 mps 672 mmHg 73%
    14:00 +26°C° 1.3 mm 2 mps 671 mmHg 76%
    15:00 +26°C° 1.3 mm 1 mps 671 mmHg 80%
    16:00 +25°C° 1.2 mm 1 mps 671 mmHg 84%
    17:00 +23°C° 1.2 mm 1 mps 671 mmHg 87%
    18:00 +22°C° 1.2 mm 1 mps 671 mmHg 91%
    19:00 +22°C° 0.3 mm 1 mps 671 mmHg 92%
    20:00 +22°C° 0.3 mm 1 mps 672 mmHg 93%
    21:00 +20°C° 0.3 mm 2 mps 672 mmHg 94%
    22:00 +20°C° 0.1 mm 2 mps 672 mmHg 94%
    23:00 +20°C° 0.1 mm 2 mps 672 mmHg 94%

    24 October, Tuesday

    Time Temperature Precipitation Wind Pressure Humidity
    00:00 +20°C° 0.1 mm 2 mps 672 mmHg 94%
    01:00 +20°C° 0.1 mm 2 mps 671 mmHg 94%
    02:00 +19°C° 0.1 mm 2 mps 671 mmHg 94%
    03:00 +19°C° 0.1 mm 2 mps 670 mmHg 93%
    04:00 +19°C° 0 mm 2 mps 671 mmHg 93%
    05:00 +19°C° 0 mm 2 mps 671 mmHg 93%
    06:00 +19°C° 0 mm 2 mps 671 mmHg 93%
    07:00 +20°C° 0.1 mm 2 mps 672 mmHg 89%
    08:00 +21°C° 0.1 mm 2 mps 673 mmHg 84%
    09:00 +24°C° 0.1 mm 3 mps 673 mmHg 80%
    10:00 +24°C° 0.1 mm 3 mps 673 mmHg 77%
    11:00 +25°C° 0.1 mm 3 mps 673 mmHg 73%
    12:00 +26°C° 0.1 mm 3 mps 672 mmHg 69%
    13:00 +26°C° 0.2 mm 3 mps 672 mmHg 69%
    14:00 +26°C° 0.2 mm 3 mps 671 mmHg 69%
    15:00 +26°C° 0.2 mm 3 mps 671 mmHg 69%
    16:00 +24°C° 0.1 mm 2 mps 671 mmHg 72%
    17:00 +23°C° 0.1 mm 2 mps 671 mmHg 76%
    18:00 +21°C° 0.1 mm 2 mps 671 mmHg 80%
    19:00 +20°C° 0.1 mm 2 mps 671 mmHg 82%
    20:00 +20°C° 0.1 mm 2 mps 672 mmHg 83%
    21:00 +19°C° 0.1 mm 2 mps 672 mmHg 84%
    22:00 +19°C° 0 mm 2 mps 672 mmHg 85%
    23:00 +19°C° 0 mm 2 mps 672 mmHg 86%

    25 October, Wednesday

    Time Temperature Precipitation Wind Pressure Humidity
    00:00 +19°C° 0 mm 2 mps 671 mmHg 86%
    01:00 +19°C° 0.1 mm 3 mps 671 mmHg 86%
    02:00 +19°C° 0.1 mm 3 mps 671 mmHg 86%
    03:00 +19°C° 0.1 mm 3 mps 671 mmHg 85%
    04:00 +19°C° 0.1 mm 3 mps 671 mmHg 85%
    05:00 +19°C° 0.1 mm 3 mps 671 mmHg 84%
    06:00 +19°C° 0.1 mm 3 mps 671 mmHg 84%
    07:00 +20°C° 0.1 mm 3 mps 672 mmHg 82%
    08:00 +20°C° 0.1 mm 3 mps 673 mmHg 80%
    09:00 +21°C° 0.1 mm 3 mps 673 mmHg 79%
    10:00 +22°C° 0 mm 3 mps 673 mmHg 75%
    11:00 +24°C° 0 mm 3 mps 673 mmHg 72%
    12:00 +25°C° 0 mm 4 mps 673 mmHg 69%
    13:00 +23°C° 0 mm 4 mps 672 mmHg 69%
    14:00 +23°C° 0 mm 4 mps 672 mmHg 70%
    15:00 +23°C° 0 mm 4 mps 672 mmHg 70%
    16:00 +22°C° 0 mm 3 mps 672 mmHg 72%
    17:00 +21°C° 0 mm 3 mps 672 mmHg 74%
    18:00 +19°C° 0 mm 3 mps 672 mmHg 76%
    19:00 +19°C° 0 mm 3 mps 673 mmHg 76%
    20:00 +19°C° 0 mm 3 mps 673 mmHg 75%
    21:00 +18°C° 0 mm 3 mps 673 mmHg 75%
    22:00 +18°C° 0 mm 3 mps 673 mmHg 74%
    23:00 +18°C° 0 mm 3 mps 672 mmHg 74%
    Show more